{"data":{"norad_id":55483,"intl_designator":"2023-015AL","name":"STARLINK-5692","alt_names":[],"object_type":"PAYLOAD","status":"ACTIVE","operator":null,"country":"US","launch_date":"2023-02-02","launch_site_code":"AFETR","launch_vehicle":null,"mission":null,"orbit_class":"UNKNOWN","rcs_meters":null,"size_class":null,"mass_kg":null,"dimensions":null,"purposes":["comms"],"wikipedia_slug":null,"has_3d_model":false,"image_url":null,"decayed_at":null,"tle_current":{"epoch":"2026-05-25T00:55:31.768032Z","epoch_age_seconds":72051,"freshness":"FRESH","line1":"1 55483U 23015AL  26145.03856213 -.00000162  00000+0  36201-5 0  9998","line2":"2 55483  43.0011 268.4031 0001311 271.6888  88.3814 15.27577584182279","mean_motion":15.27577584,"eccentricity":0.0001311,"inclination_deg":43.0011,"raan_deg":268.4031,"arg_perigee_deg":271.6888,"mean_anomaly_deg":88.3814,"bstar":3.6201e-6,"rev_number":18227,"period_min":94.26689780491,"perigee_km":482.15682797672,"apogee_km":483.95583286796,"semimajor_km":6861.1933304223,"source":"CELESTRAK","updated_at":"2026-05-25T13:38:17.809387Z"}}}